Simultaneous Nadir Overpasses (SNOs) Predictions

Prediction of SNOs between AQUA and METOP-A Satellite Orbit:

Table of predicted SNOs for the next 14.0 days since TLE Epoch: 6/6/2020
Index Date (AQUA) Time (AQUA) Lat,Lon (AQUA) SZA (AQUA ) Date (METOP-A) Time (METOP-A) Lat,Lon (METOP-A) SZA (METOP-A ) Distance(km) Time Diff (sec)
1 06/07/2020 15:00:51 -76.26, 122.77 126.32 06/07/2020 14:59:45 -76.25, 122.86 126.33 2.80 66
2 06/07/2020 15:50:18 76.27, -69.61 53.69 06/07/2020 15:50:24 76.29, -69.66 53.71 2.45 6
3 06/07/2020 16:39:50 -76.54, 97.11 126.00 06/07/2020 16:41:00 -76.55, 98.58 126.09 37.87 70
4 06/10/2020 10:35:06 -76.24,-170.74 126.56 06/10/2020 10:34:07 -76.24,-170.80 126.55 1.70 59
5 06/10/2020 11:24:34 76.31, -3.30 53.51 06/10/2020 11:24:46 76.28, -3.33 53.49 2.89 12
6 06/10/2020 12:14:11 -76.81, 162.61 125.90 06/10/2020 12:15:16 -76.81, 165.92 126.09 83.85 65
7 06/13/2020 06:09:22 -76.28,-104.42 126.69 06/13/2020 06:08:28 -76.28,-104.31 126.68 2.87 54
8 06/13/2020 06:58:49 76.30, 63.16 53.34 06/13/2020 06:59:07 76.32, 63.16 53.35 2.17 18
9 06/16/2020 01:43:36 -76.28, -37.96 126.81 06/16/2020 01:42:49 -76.27, -37.99 126.79 0.68 47
10 06/16/2020 02:33:03 76.30, 129.60 53.23 06/16/2020 02:33:28 76.31, 129.48 53.24 3.58 25
11 06/18/2020 21:17:51 -76.27, 28.48 126.86 06/18/2020 21:17:10 -76.31, 28.49 126.82 3.83 41
12 06/18/2020 22:07:19 76.35,-164.12 53.23 06/18/2020 22:07:49 76.35,-164.05 53.21 1.99 30




NCC Satellite Simultaneous Nadir Overpasses (SNOs) Prediction Service
